Location: Gad�tanya
(48.0500°N, 20.8500°E)
Time: 11:47:45
(UTC+00:00)

Cosmos 1408 - Pass Details

Date: 05 July 2020
Orbit: 471 x 493 km, 82.6° (Epoch: 14 August)

Event Time Altitude Azimuth Distance (km) Brightness Sun altitude
Exits shadow 21:29:04 44° 184° (S) 664 2.8 -17.4°
Maximum altitude 21:30:06 86° 98° (E) 481 2.4 -17.5°
Drops below altitude 10° 21:33:42 10° 10° (N) 1,646 6.2 -17.7°
Sets 21:35:48 0° 10° (N) 2,529 7.4 -17.8°
